When you browse on this site, cookies collect data to enhance your experience and personalize the content and advertising you see.
Visit our Privacy Policy to learn more. By continuing to use the site, you agree to this use of cookies and data.
  • In Hungary
  • List of Countries
  • For 7 days
  • Water Temperature
  • Weather Map
  • News
  • Weather Widgets
  • user-avatar
    Login

    Hourly Weather Matki

    Today, 22 September, Sunday

    Time Temperature Precipitation Wind Pressure Humidity
    00:00 +9°C° 0 mm 2 mps 752 mmHg 97%
    01:00 +9°C° 0 mm 2 mps 752 mmHg 96%
    02:00 +9°C° 0 mm 2 mps 752 mmHg 96%
    03:00 +9°C° 0 mm 2 mps 752 mmHg 97%
    04:00 +8°C° 0 mm 2 mps 751 mmHg 97%
    05:00 +9°C° 0 mm 3 mps 751 mmHg 94%
    06:00 +10°C° 0 mm 3 mps 751 mmHg 92%
    07:00 +10°C° 0 mm 3 mps 751 mmHg 90%
    08:00 +12°C° 0 mm 3 mps 751 mmHg 82%
    09:00 +14°C° 0 mm 3 mps 751 mmHg 74%
    10:00 +17°C° 0 mm 3 mps 751 mmHg 67%
    11:00 +18°C° 0 mm 3 mps 751 mmHg 62%
    12:00 +20°C° 0 mm 3 mps 750 mmHg 58%
    13:00 +21°C° 0 mm 3 mps 750 mmHg 53%
    14:00 +20°C° 0 mm 3 mps 750 mmHg 55%
    15:00 +20°C° 0 mm 2 mps 749 mmHg 58%
    16:00 +20°C° 0 mm 2 mps 749 mmHg 60%
    17:00 +17°C° 0 mm 2 mps 749 mmHg 69%
    18:00 +15°C° 0 mm 2 mps 750 mmHg 78%
    19:00 +13°C° 0 mm 2 mps 750 mmHg 87%
    20:00 +12°C° 0 mm 2 mps 750 mmHg 89%
    21:00 +12°C° 0 mm 2 mps 750 mmHg 92%
    22:00 +10°C° 0 mm 2 mps 750 mmHg 94%
    23:00 +10°C° 0 mm 3 mps 751 mmHg 93%

    Tomorrow, 23 September, Monday

    Time Temperature Precipitation Wind Pressure Humidity
    00:00 +10°C° 0 mm 3 mps 751 mmHg 92%
    01:00 +8°C° 0 mm 4 mps 751 mmHg 91%
    02:00 +8°C° 0 mm 4 mps 751 mmHg 89%
    03:00 +8°C° 0 mm 4 mps 751 mmHg 87%
    04:00 +7°C° 0 mm 4 mps 751 mmHg 85%
    05:00 +7°C° 0 mm 4 mps 752 mmHg 82%
    06:00 +8°C° 0 mm 4 mps 752 mmHg 80%
    07:00 +8°C° 0 mm 4 mps 752 mmHg 78%
    08:00 +10°C° 0 mm 4 mps 752 mmHg 74%
    09:00 +11°C° 0 mm 4 mps 753 mmHg 70%
    10:00 +13°C° 0 mm 4 mps 753 mmHg 66%
    11:00 +13°C° 0 mm 4 mps 753 mmHg 63%
    12:00 +14°C° 0 mm 4 mps 753 mmHg 61%
    13:00 +14°C° 0 mm 4 mps 752 mmHg 59%
    14:00 +14°C° 0 mm 4 mps 752 mmHg 60%
    15:00 +14°C° 0 mm 4 mps 752 mmHg 60%
    16:00 +14°C° 0 mm 3 mps 752 mmHg 61%
    17:00 +12°C° 0 mm 3 mps 752 mmHg 65%
    18:00 +11°C° 0 mm 3 mps 752 mmHg 69%
    19:00 +9°C° 0 mm 3 mps 752 mmHg 74%
    20:00 +8°C° 0 mm 3 mps 752 mmHg 73%
    21:00 +8°C° 0 mm 3 mps 752 mmHg 73%
    22:00 +7°C° 0 mm 3 mps 752 mmHg 73%
    23:00 +7°C° 0 mm 3 mps 752 mmHg 74%

    Day after tomorrow, 24 September, Tuesday

    Time Temperature Precipitation Wind Pressure Humidity
    00:00 +7°C° 0 mm 3 mps 752 mmHg 75%
    01:00 +5°C° 0 mm 3 mps 752 mmHg 76%
    02:00 +5°C° 0 mm 3 mps 751 mmHg 77%
    03:00 +6°C° 0 mm 2 mps 751 mmHg 79%
    04:00 +5°C° 0 mm 2 mps 751 mmHg 80%
    05:00 +6°C° 0 mm 2 mps 751 mmHg 78%
    06:00 +7°C° 0 mm 3 mps 751 mmHg 76%
    07:00 +7°C° 0 mm 3 mps 750 mmHg 75%
    08:00 +9°C° 0 mm 3 mps 750 mmHg 70%
    09:00 +12°C° 0 mm 3 mps 750 mmHg 66%
    10:00 +14°C° 0 mm 3 mps 750 mmHg 61%
    11:00 +16°C° 0 mm 3 mps 750 mmHg 59%
    12:00 +17°C° 0 mm 3 mps 749 mmHg 57%
    13:00 +19°C° 0 mm 3 mps 749 mmHg 55%
    14:00 +18°C° 0 mm 3 mps 748 mmHg 57%
    15:00 +18°C° 0 mm 3 mps 748 mmHg 59%
    16:00 +18°C° 0 mm 3 mps 748 mmHg 61%
    17:00 +16°C° 0 mm 3 mps 747 mmHg 67%
    18:00 +13°C° 0 mm 3 mps 747 mmHg 73%
    19:00 +12°C° 0 mm 3 mps 747 mmHg 79%
    20:00 +12°C° 0 mm 3 mps 747 mmHg 78%
    21:00 +11°C° 0 mm 4 mps 747 mmHg 76%
    22:00 +11°C° 0 mm 4 mps 747 mmHg 75%
    23:00 +11°C° 0.1 mm 4 mps 746 mmHg 75%

    25 September, Wednesday

    Time Temperature Precipitation Wind Pressure Humidity
    00:00 +11°C° 0.1 mm 4 mps 746 mmHg 75%
    01:00 +11°C° 0.1 mm 4 mps 746 mmHg 74%
    02:00 +11°C° 0 mm 4 mps 745 mmHg 76%
    03:00 +11°C° 0 mm 3 mps 745 mmHg 77%
    04:00 +11°C° 0 mm 3 mps 745 mmHg 78%
    05:00 +11°C° 0 mm 3 mps 744 mmHg 79%
    06:00 +11°C° 0 mm 3 mps 744 mmHg 80%
    07:00 +11°C° 0 mm 3 mps 744 mmHg 80%
    08:00 +12°C° 0.1 mm 3 mps 744 mmHg 79%
    09:00 +12°C° 0.1 mm 3 mps 744 mmHg 78%
    10:00 +13°C° 0.1 mm 3 mps 744 mmHg 76%
    11:00 +14°C° 0.2 mm 2 mps 743 mmHg 78%
    12:00 +14°C° 0.2 mm 2 mps 743 mmHg 81%
    13:00 +14°C° 0.2 mm 2 mps 743 mmHg 83%
    14:00 +14°C° 0.1 mm 2 mps 742 mmHg 82%
    15:00 +14°C° 0.1 mm 2 mps 742 mmHg 82%
    16:00 +14°C° 0.1 mm 2 mps 742 mmHg 82%
    17:00 +14°C° 0.1 mm 2 mps 742 mmHg 84%
    18:00 +14°C° 0.1 mm 2 mps 742 mmHg 86%
    19:00 +13°C° 0.1 mm 2 mps 742 mmHg 87%
    20:00 +13°C° 0 mm 1 mps 742 mmHg 89%
    21:00 +13°C° 0 mm 1 mps 742 mmHg 90%
    22:00 +13°C° 0 mm 1 mps 742 mmHg 91%
    23:00 +12°C° 0.1 mm 0 mps 742 mmHg 92%

    26 September, Thursday

    Time Temperature Precipitation Wind Pressure Humidity
    00:00 +12°C° 0.1 mm 0 mps 742 mmHg 93%
    01:00 +12°C° 0.1 mm 0 mps 742 mmHg 94%
    02:00 +12°C° 0.1 mm 0 mps 742 mmHg 95%
    03:00 +12°C° 0.1 mm 1 mps 743 mmHg 95%
    04:00 +12°C° 0.1 mm 1 mps 743 mmHg 96%
    05:00 +12°C° 0.2 mm 1 mps 743 mmHg 96%
    06:00 +12°C° 0.2 mm 1 mps 743 mmHg 96%
    07:00 +12°C° 0.2 mm 1 mps 743 mmHg 97%
    08:00 +13°C° 0.1 mm 1 mps 744 mmHg 94%
    09:00 +13°C° 0.1 mm 1 mps 744 mmHg 92%
    10:00 +14°C° 0.1 mm 1 mps 745 mmHg 90%
    11:00 +14°C° 0.1 mm 1 mps 745 mmHg 86%
    12:00 +15°C° 0.1 mm 2 mps 745 mmHg 83%
    13:00 +16°C° 0.1 mm 2 mps 745 mmHg 79%
    14:00 +15°C° 0.3 mm 2 mps 745 mmHg 82%
    15:00 +15°C° 0.3 mm 2 mps 745 mmHg 86%
    16:00 +14°C° 0.3 mm 2 mps 745 mmHg 89%
    17:00 +13°C° 0.1 mm 2 mps 746 mmHg 92%
    18:00 +12°C° 0.1 mm 2 mps 746 mmHg 94%
    19:00 +11°C° 0.1 mm 1 mps 746 mmHg 96%
    20:00 +11°C° 0 mm 1 mps 746 mmHg 96%
    21:00 +11°C° 0 mm 1 mps 747 mmHg 96%
    22:00 +10°C° 0 mm 1 mps 747 mmHg 96%
    23:00 +10°C° 0 mm 1 mps 747 mmHg 96%

    27 September, Friday

    Time Temperature Precipitation Wind Pressure Humidity
    00:00 +9°C° 0 mm 2 mps 747 mmHg 96%
    01:00 +8°C° 0 mm 2 mps 747 mmHg 96%
    02:00 +8°C° 0 mm 2 mps 747 mmHg 96%
    03:00 +8°C° 0 mm 2 mps 748 mmHg 95%
    04:00 +8°C° 0 mm 2 mps 748 mmHg 94%
    05:00 +8°C° 0 mm 2 mps 748 mmHg 93%
    06:00 +8°C° 0 mm 2 mps 748 mmHg 92%
    07:00 +8°C° 0 mm 2 mps 748 mmHg 91%
    08:00 +9°C° 0 mm 2 mps 748 mmHg 86%
    09:00 +10°C° 0 mm 2 mps 749 mmHg 81%
    10:00 +12°C° 0 mm 2 mps 749 mmHg 76%
    11:00 +13°C° 0 mm 2 mps 749 mmHg 73%
    12:00 +14°C° 0 mm 2 mps 749 mmHg 69%
    13:00 +15°C° 0 mm 2 mps 749 mmHg 65%
    14:00 +15°C° 0 mm 2 mps 748 mmHg 67%
    15:00 +15°C° 0 mm 2 mps 748 mmHg 69%
    16:00 +15°C° 0 mm 2 mps 748 mmHg 71%
    17:00 +13°C° 0 mm 3 mps 748 mmHg 74%
    18:00 +13°C° 0 mm 3 mps 748 mmHg 77%
    19:00 +12°C° 0 mm 3 mps 748 mmHg 81%
    20:00 +12°C° 0.3 mm 4 mps 748 mmHg 83%
    21:00 +12°C° 0.3 mm 4 mps 748 mmHg 85%
    22:00 +12°C° 0.3 mm 4 mps 748 mmHg 88%
    23:00 +12°C° 0.2 mm 4 mps 748 mmHg 89%
    Show more